Location: Gouy
(50.0008°N, 3.2556°E)
Time: 05:49:47
(UTC+00:00)

Meteor 2-5 Rocket - Pass Details

Date: 23 May 2024
Orbit: 832 x 911 km, 81.2° (Epoch: 19 June)

Event Time Altitude Azimuth Distance (km) Brightness Sun altitude
Exits shadow 02:43:02 - 196° (SSW) 2,769 5.8 -9.0°
Reaches altitude 10° 02:43:32 10° 197° (SSW) 2,578 5.7 -8.9°
Maximum altitude 02:49:26 77° 283° (WNW) 938 3.9 -8.3°
Drops below altitude 10° 02:55:26 10° 10° (N) 2,611 7.2 -7.6°
Sets 02:57:55 0° 12° (NNE) 3,556 8.0 -7.4°
